Location: Handeloh
(53.2500°N, 9.8330°E)
Time: 18:05:29
(UTC+01:00)

S-56A Canister/Altair - Pass Details

Date: 26 November 2019
Orbit: 633 x 2499 km, 38.9° (Epoch: 06 December)

Event Time Altitude Azimuth Distance (km) Brightness Sun altitude
Rises 16:37:40 0° 244° (WSW) 5,747 14.9 -4.1°
Reaches altitude 10° 16:42:13 10° 237° (WSW) 4,489 13.4 -4.7°
Maximum altitude 16:52:06 33° 180° (S) 2,410 10.4 -6.0°
Drops below altitude 10° 16:59:10 10° 120° (ESE) 3,183 10.4 -7.0°
Sets 17:01:50 0° 110° (ESE) 3,913 10.7 -7.3°
